This is the latest recevied weather packets stored in our database for station/object KC5TIL-3. If no packets are shown the sender has not sent any weather packets the latest 10 day(s).
| Time | Temp. | Humidity | Pressure | Rain* | Wind** | Luminosity | Snow |
|---|---|---|---|---|---|---|---|
| 1777812824 | 15° C | 37% | 1018.8 hPa | 0 mm | 3.13 m/s, 238° | - | - |
| 1777812522 | 15° C | 38% | 1018.8 hPa | 0 mm | 3.58 m/s, 213° | - | - |
| 1777812224 | 14.44° C | 38% | 1018.8 hPa | 0 mm | 2.24 m/s, 148° | - | - |
| 1777811922 | 14.44° C | 39% | 1018.8 hPa | 0 mm | 4.02 m/s, 208° | - | - |
| 1777811624 | 14.44° C | 40% | 1018.8 hPa | 0 mm | 2.68 m/s, 235° | - | - |
| 1777811326 | 14.44° C | 41% | 1018.8 hPa | 0 mm | 2.68 m/s, 219° | - | - |
| 1777811015 | 14.44° C | 41% | 1018.8 hPa | 0 mm | 3.13 m/s, 195° | - | - |
| 1777810716 | 14.44° C | 41% | 1017.8 hPa | 0 mm | 3.13 m/s, 228° | - | - |
| 1777810418 | 13.89° C | 41% | 1017.8 hPa | 0 mm | 2.68 m/s, 199° | - | - |
| 1777810117 | 13.89° C | 41% | 1017.8 hPa | 0 mm | 3.13 m/s, 173° | - | - |
| 1777809819 | 13.89° C | 41% | 1017.8 hPa | 0 mm | 3.13 m/s, 211° | - | - |
| 1777809516 | 13.89° C | 41% | 1017.8 hPa | 0 mm | 2.68 m/s, 190° | - | - |
| 1777809215 | 13.89° C | 40% | 1017.8 hPa | 0 mm | 2.68 m/s, 202° | - | - |
| 1777808917 | 14.44° C | 40% | 1017.8 hPa | 0 mm | 3.58 m/s, 216° | - | - |
| 1777808613 | 14.44° C | 40% | 1017.8 hPa | 0 mm | 3.13 m/s, 225° | - | - |
| 1777808312 | 14.44° C | 39% | 1017.8 hPa | 0 mm | 1.79 m/s, 189° | - | - |
| 1777808014 | 14.44° C | 39% | 1017.8 hPa | 0 mm | 3.13 m/s, 214° | - | - |
| 1777807716 | 14.44° C | 38% | 1017.8 hPa | 0 mm | 3.13 m/s, 211° | - | - |
| 1777807414 | 14.44° C | 37% | 1017.8 hPa | 0 mm | 4.02 m/s, 202° | - | - |
| 1777807116 | 14.44° C | 37% | 1017.8 hPa | 0 mm | 4.47 m/s, 198° | - | - |
| 1777806818 | 14.44° C | 37% | 1017.8 hPa | 0 mm | 2.68 m/s, 234° | - | - |
| 1777806517 | 15° C | 36% | 1017.8 hPa | 0 mm | 2.68 m/s, 172° | - | - |
| 1777806214 | 15° C | 36% | 1017.8 hPa | 0 mm | 2.68 m/s, 214° | - | - |
| 1777805916 | 15° C | 36% | 1017.8 hPa | 0 mm | 3.13 m/s, 215° | - | - |
| 1777805610 | 15° C | 36% | 1017.8 hPa | 0 mm | 3.13 m/s, 213° | - | - |
* Rain latest hour (hover to see other rain measurements)
** Current wind speed in m/s (hover to see current wind gust speed)